Bullsbrook Pearce, Australia

6:02 PM AWST on July 22, 2017 (GMT +0800)
Pearce (Military)

Weather History for YPEA - January, 2013

Change the Weather History Date:

Tuesday, January 1, 2013

  Actual Average (YPPH) Record (YPPH)
Temperature  
Mean Temperature 84 °F -  
Max Temperature 98 °F 86 °F 107 °F (1997)
Min Temperature 71 °F 61 °F 51 °F (2006)
Cooling Degree Days 20    
Growing Degree Days 34 (Base 50)    
Moisture  
Dew Point 67 °F    
Average Humidity 63    
Maximum Humidity 94    
Minimum Humidity 24    
Precipitation  
Precipitation 0.00 in - - ()
Sea Level Pressure  
Sea Level Pressure 29.81 in    
Wind  
Wind Speed 10 mph ()    
Max Wind Speed 20 mph    
Max Gust Speed -    
Visibility 6.0 miles    
Events      
Averages and records for this station are not official NWS values.
T = Trace of Precipitation, MM = Missing Value Source: Averaged Metar Reports

Daily Weather History Graph

Daily Weather History Graph

Search for Another Location

Airport or City:

Trip Planner

Search our weather history database for the weather conditions in past years. The results will help you decide how hot, cold, wet, or windy it might be!

Date:

Astronomy

Jan. 01, 2013 Rise Set
Actual Time 5:14 AM AWST 7:24 PM AWST
Civil Twilight 4:46 AM AWST 7:52 PM AWST
Nautical Twilight 4:11 AM AWST 8:26 PM AWST
Astronomical Twilight 3:35 AM AWST 9:03 PM AWST
Moon 9:42 PM AWST (1/1) 8:34 AM AWST (1/1)
Length of Visible Light 15h 06m
Length of Day
14h 10m
Waning Gibbous, 87% of the Moon is Illuminated
Jan 1
Waning Gibbous
Jan 5
Last Quarter
Jan 12
New
Jan 19
First Quarter
Jan 27
Full

Hourly Weather History & Observations

Time (AWST) Temp. Heat Index Dew Point Humidity Pressure Visibility Wind Dir Wind Speed Gust Speed Precip Events Conditions
12:00 AM 84 °F - 53 °F 24% 29.74 in - North 13.8 mph - -  
12:00 AM 84.2 °F 82.8 °F 53.6 °F 35% 29.74 in 6.2 mi North 13.8 mph - N/A   Unknown
1:00 AM 84.2 °F 83.8 °F 59.0 °F 42% 29.74 in 6.2 mi North 9.2 mph - N/A   Unknown
2:00 AM 82.4 °F 82.9 °F 60.8 °F 48% 29.74 in 6.2 mi North 10.4 mph - N/A   Unknown
3:00 AM 81 °F - 64 °F 47% 29.75 in - North 3.5 mph - -  
3:00 AM 80.6 °F 82.3 °F 64.4 °F 58% 29.74 in 6.2 mi North 3.5 mph - N/A   Unknown
4:00 AM 78.8 °F - 66.2 °F 65% 29.74 in 6.2 mi North 5.8 mph - N/A   Unknown
5:00 AM 75.2 °F - 68.0 °F 78% 29.77 in 6.2 mi North 5.8 mph - N/A   Unknown
6:00 AM 77.0 °F - 68.0 °F 74% 29.77 in 6.2 mi North 6.9 mph - N/A   Unknown
7:00 AM 80.6 °F 83.2 °F 68.0 °F 65% 29.80 in 6.2 mi North 12.7 mph - N/A   Unknown
8:00 AM 82.4 °F 85.4 °F 68.0 °F 62% 29.80 in 6.2 mi NNW 9.2 mph - N/A   Unknown
9:00 AM 86 °F - 68 °F 45% 29.80 in - NNW 9.2 mph - -  
9:00 AM 86.0 °F 89.4 °F 68.0 °F 55% 29.80 in 6.2 mi NNW 9.2 mph - N/A   Unknown
10:00 AM 91.4 °F 95.4 °F 68.0 °F 46% 29.80 in 6.2 mi NW 11.5 mph - N/A   Unknown
11:00 AM 93.2 °F 98.8 °F 69.8 °F 46% 29.80 in 6.2 mi West 12.7 mph - N/A   Unknown
12:00 PM 96 °F - 69 °F 33% 29.78 in - WNW 11.5 mph - -  
12:00 PM 95.0 °F 101.3 °F 69.8 °F 44% 29.77 in 6.2 mi WNW 11.5 mph - N/A   Unknown
1:00 PM 93.2 °F 97.7 °F 68.0 °F 44% 29.77 in 6.2 mi West 19.6 mph - N/A   Unknown
2:00 PM 91.4 °F 94.0 °F 66.2 °F 43% 29.80 in 6.2 mi WNW 17.3 mph - N/A   Unknown
3:00 PM 89 °F - 66 °F 36% 29.78 in - West 13.8 mph - -  
3:00 PM 89.6 °F 92.2 °F 66.2 °F 46% 29.77 in 6.2 mi West 13.8 mph - N/A   Unknown
4:00 PM 87.8 °F 91.4 °F 68.0 °F 52% 29.77 in 6.2 mi West 13.8 mph - N/A   Unknown
5:00 PM 78.8 °F - 68.0 °F 69% 29.80 in 6.2 mi West 15.0 mph - N/A   Unknown
6:00 PM 78 °F - 68 °F 65% 29.81 in - West 15.0 mph - -  
6:00 PM 78.8 °F - 68.0 °F 69% 29.80 in 6.2 mi West 15.0 mph - N/A   Scattered Clouds
6:39 PM 77.0 °F - 68.0 °F 74% 29.83 in 6.2 mi West 11.5 mph - N/A   Mostly Cloudy
7:00 PM 75.2 °F - 68.0 °F 78% 29.83 in 6.2 mi WNW 10.4 mph - N/A   Mostly Cloudy
8:00 PM 75.2 °F - 68.0 °F 78% 29.86 in 6.2 mi NW 9.2 mph - N/A   Mostly Cloudy
9:00 PM 75 °F - 68 °F 74% 29.91 in - NW 6.9 mph - -  
9:00 PM 75.2 °F - 68.0 °F 78% 29.89 in 6.2 mi NW 6.9 mph - N/A   Overcast
9:20 PM 73.4 °F - 69.8 °F 88% 29.92 in 3.7 mi North 9.2 mph - N/A   Overcast
10:00 PM 73.4 °F - 69.8 °F 88% 29.92 in 3.7 mi NW 6.9 mph - N/A   Overcast
10:12 PM 71.6 °F - 69.8 °F 94% 29.89 in 6.2 mi NW 6.9 mph - N/A   Overcast
10:20 PM 71.6 °F - 69.8 °F 94% 29.89 in 6.2 mi WNW 5.8 mph - N/A   Overcast
11:00 PM 71.6 °F - 69.8 °F 94% 29.86 in 6.2 mi West 8.1 mph - N/A   Scattered Clouds
11:39 PM 71.6 °F - 69.8 °F 94% 29.86 in 6.2 mi West 9.2 mph - N/A   Mostly Cloudy
11:53 PM 71.6 °F - 69.8 °F 94% 29.86 in 6.2 mi West 11.5 mph - N/A   Unknown